Location: Ar Ranvel
(48.3000°N, 4.8833°W)
Time: 14:47:38
(UTC+00:00)

N. Korean satellite - Pass Details

Date: 03 October 2021
Orbit: 450 x 495 km, 97.3° (Epoch: 19 October)

Event Time Altitude Azimuth Distance (km) Brightness Sun altitude
Rises 04:28:02 0° 33° (NNE) 2,557 11.0 -19.5°
Reaches altitude 10° 04:31:16 10° 65° (ENE) 1,680 10.5 -19.0°
Maximum altitude 04:32:44 12° 89° (E) 1,557 10.2 -18.8°
Drops below altitude 10° 04:34:12 10° 113° (ESE) 1,682 10.0 -18.6°
Sets 04:37:27 0° 146° (SE) 2,564 10.5 -18.0°
